Terug naar catalogus

STARLINK-37312

ActiefCommunicatieSSO
NORAD 68676·PAYLOAD·🇺🇸 United States

Gelanceerd Apr 11, 2026 vanaf Vandenberg Space Force Base

Loading…

Volgende Passages (komende 24 uur)

TLE

VersSource: CelesTrak SupGP

Epoch: Sep 15, 2026, 03:36 UTC

1 68676C 26077Q   26258.15048611  .00008284  00000+0  25707-3 0  2587
2 68676  97.2847 128.1593 0001874  94.2739 337.4307 15.33445021    11

Volg STARLINK-37312 in realtime met AllMySat

Download on the App Store